Hourly Data Report for May 17, 2022

MIRAMICHI RCS
NEW BRUNSWICK
Current Station Operator: ECCC - MSC

47°00'34.000" N
65°27'54.000" W
33.00 m
8100989
71744
ACQ

Download Data

Hourly Data (May 2022)
Hourly Data Report for May 17, 2022
TIME
LST
Temp Definition
°C
Dew Point Definition
°C
Rel Hum Definition
%
Precip. Amount Definition
mm

Wind Dir Definition
10's deg

Wind Spd Definition
km/h
Visibility Definition
km
Stn Press Definition
kPa
Hmdx Definition


Wind Chill Definition


Weather Definition


00:00 12.2 11.9 98 0.0 7 12   100.07     LegendNANA
01:00 11.9 11.7 99 0.0 5 14   99.95     LegendNANA
02:00 11.1 10.9 99 0.0 6 14   99.86     LegendNANA
03:00 10.8 10.6 99 0.0 6 12   99.79     LegendNANA
04:00 11.1 10.9 99 0.0 6 10   99.67     LegendNANA
05:00 11.4 11.1 98 0.0 7 10   99.62     LegendNANA
06:00 12.4 12.2 99 3.9 7 12   99.52     LegendNANA
07:00 14.2 13.8 97 0.9 12 12   99.46     LegendNANA
08:00 15.3 14.5 95 0.3 14 13   99.39     LegendNANA
09:00 15.6 14.9 95 0.0 17 11   99.36     LegendNANA
10:00 15.5 15.0 96 1.5 16 13   99.26     LegendNANA
11:00 16.0 15.4 96 6.2 15 11   99.19     LegendNANA
12:00 17.0 15.9 93 0.0 17 17   99.10     LegendNANA
13:00 17.7 16.0 90 0.0 17 18   99.03     LegendNANA
14:00 20.5 15.9 75 0.0 18 24   98.94 25   LegendNANA
15:00 19.8 13.0 65 0.0 20 30   98.94     LegendNANA
16:00 19.1 13.1 68 0.0 21 27   98.98     LegendNANA
17:00 18.4 10.4 60 0.0 24 28   99.02     LegendNANA
18:00 18.3 9.4 56 0.0 22 29   99.05     LegendNANA
19:00 17.5 8.6 56 0.0 22 23   99.08     LegendNANA
20:00 14.8 9.7 72 0.0 20 25   99.13     LegendNANA
21:00 14.6 8.9 69 0.0 22 17   99.19     LegendNANA
22:00 13.6 9.0 74 0.0 21 15   99.21     LegendNANA
23:00 12.0 8.6 79 0.0 22 16   99.21     LegendNANA

Notes on Data Quality.

Legend

  • E = Estimated
  • M = Missing
  • NA = Not Available*
  • [empty] = Indicates an unobserved value
Date modified: